| time (UTC) | temp C | wind direction | speed KPH | gust KPH | rain 1hr cm | rain 24hr cm | rain mn cm | humidity % | barometer mb |
| 20260903130018 | 27 | 131 | 1.6 | 6.4 | 0.00 | 0.00 | 0.00 | 85 | 1014.1 |
| 20260903124600 | 26 | 135 | 1.6 | 6.4 | 0.00 | 0.00 | 0.00 | 86 | 1014.1 |
| 20260903123058 | 26 | 150 | 1.6 | 6.4 | 0.00 | 0.00 | 0.00 | 86 | 1014.2 |
| 20260903121556 | 25 | 194 | 0.0 | 4.8 | 0.00 | 0.00 | 0.00 | 86 | 1014.1 |
| 20260903120052 | 25 | 134 | 0.0 | 9.7 | 0.00 | 0.00 | 0.00 | 86 | 1014.1 |
| 20260903114551 | 25 | 130 | 1.6 | 6.4 | 0.00 | 0.00 | 0.00 | 86 | 1013.9 |
| 20260903113045 | 25 | 134 | 3.2 | 6.4 | 0.00 | 0.00 | 0.00 | 86 | 1013.7 |
| 20260903111544 | 25 | 99 | 1.6 | 9.7 | 0.00 | 0.00 | 0.00 | 86 | 1013.6 |
| 20260903110110 | 25 | 34 | 0.0 | 6.4 | 0.00 | 0.00 | 0.00 | 86 | 1013.3 |
| 20260903104543 | 25 | 134 | 3.2 | 9.7 | 0.00 | 0.00 | 0.00 | 86 | 1013.2 |
| 20260903103042 | 25 | 91 | 1.6 | 6.4 | 0.00 | 0.00 | 0.00 | 85 | 1013.3 |
| 20260903101541 | 25 | 70 | 0.0 | 4.8 | 0.00 | 0.00 | 0.00 | 85 | 1013.3 |
| 20260903100041 | 25 | 92 | 1.6 | 6.4 | 0.00 | 0.00 | 0.00 | 85 | 1013.3 |
| 20260903094551 | 25 | 82 | 0.0 | 4.8 | 0.00 | 0.00 | 0.00 | 85 | 1013.3 |
| 20260903093040 | 26 | 119 | 1.6 | 9.7 | 0.00 | 0.00 | 0.00 | 85 | 1013.1 |
| 20260903091538 | 26 | 134 | 4.8 | 11.3 | 0.00 | 0.00 | 0.00 | 84 | 1013.2 |
| 20260903090036 | 26 | 108 | 3.2 | 9.7 | 0.00 | 0.00 | 0.00 | 84 | 1013.2 |
| 20260903084536 | 26 | 109 | 3.2 | 11.3 | 0.00 | 0.00 | 0.00 | 84 | 1013.3 |
| 20260903083033 | 26 | 101 | 1.6 | 6.4 | 0.00 | 0.00 | 0.00 | 84 | 1013.3 |
| 20260903081540 | 26 | 65 | 1.6 | 6.4 | 0.00 | 0.00 | 0.00 | 83 | 1013.4 |
| 20260903080030 | 26 | 94 | 1.6 | 11.3 | 0.00 | 0.00 | 0.00 | 83 | 1013.3 |
| 20260903074529 | 26 | 134 | 3.2 | 9.7 | 0.00 | 0.00 | 0.00 | 83 | 1013.6 |
| 20260903071527 | 26 | 131 | 6.4 | 11.3 | 0.00 | 0.00 | 0.00 | 82 | 1013.6 |
| 20260903070034 | 26 | 100 | 1.6 | 12.9 | 0.00 | 0.00 | 0.00 | 82 | 1013.7 |
| 20260903064523 | 26 | 125 | 3.2 | 12.9 | 0.00 | 0.00 | 0.00 | 81 | 1013.8 |
| 20260903063021 | 27 | 134 | 6.4 | 14.5 | 0.00 | 0.00 | 0.00 | 81 | 1013.9 |
| 20260903061519 | 27 | 134 | 11.3 | 16.1 | 0.00 | 0.00 | 0.00 | 80 | 1013.9 |
| 20260903060118 | 27 | 105 | 4.8 | 14.5 | 0.00 | 0.00 | 0.00 | 80 | 1014.1 |
| 20260903054536 | 27 | 109 | 9.7 | 20.9 | 0.00 | 0.00 | 0.00 | 79 | 1013.8 |
| 20260903053014 | 27 | 90 | 9.7 | 17.7 | 0.00 | 0.00 | 0.00 | 78 | 1014.1 |
| 20260903051513 | 27 | 73 | 14.5 | 17.7 | 0.00 | 0.00 | 0.00 | 77 | 1014.3 |
| 20260903050014 | 28 | 88 | 9.7 | 19.3 | 0.00 | 0.00 | 0.00 | 76 | 1014.3 |
| 20260903044513 | 28 | 55 | 6.4 | 19.3 | 0.00 | 0.00 | 0.00 | 76 | 1014.4 |
| 20260903043012 | 28 | 101 | 6.4 | 20.9 | 0.00 | 0.00 | 0.00 | 76 | 1014.3 |
| 20260903041514 | 28 | 89 | 8.0 | 14.5 | 0.00 | 0.00 | 0.00 | 75 | 1014.3 |
| 20260903040011 | 28 | 79 | 4.8 | 17.7 | 0.00 | 0.00 | 0.00 | 75 | 1014.4 |
| 20260903034510 | 28 | 57 | 4.8 | 17.7 | 0.00 | 0.00 | 0.00 | 74 | 1014.6 |
| 20260903033009 | 28 | 87 | 6.4 | 19.3 | 0.00 | 0.00 | 0.00 | 74 | 1014.4 |
| 20260903031508 | 28 | 32 | 4.8 | 16.1 | 0.00 | 0.00 | 0.00 | 74 | 1014.5 |
| 20260903030018 | 28 | 80 | 8.0 | 16.1 | 0.00 | 0.00 | 0.00 | 74 | 1014.2 |
| 20260903024508 | 29 | 141 | 8.0 | 20.9 | 0.00 | 0.00 | 0.00 | 73 | 1014.1 |
| 20260903023010 | 29 | 112 | 16.1 | 24.1 | 0.00 | 0.00 | 0.00 | 74 | 1014.0 |
| 20260903021509 | 30 | 88 | 16.1 | 27.4 | 0.00 | 0.00 | 0.00 | 75 | 1013.6 |
| 20260903020007 | 30 | 74 | 22.5 | 32.2 | 0.00 | 0.00 | 0.00 | 74 | 1013.6 |
| 20260903014506 | 30 | 65 | 27.4 | 35.4 | 0.00 | 0.00 | 0.00 | 75 | 1013.2 |
| 20260903013004 | 30 | 48 | 17.7 | 30.6 | 0.00 | 0.00 | 0.00 | 76 | 1012.7 |
| 20260903011508 | 30 | 38 | 19.3 | 25.7 | 0.00 | 0.00 | 0.00 | 75 | 1012.6 |
| 20260903010003 | 31 | 5 | 17.7 | 33.8 | 0.00 | 0.00 | 0.00 | 74 | 1012.5 |
| 20260903004503 | 31 | 38 | 14.5 | 22.5 | 0.00 | 0.00 | 0.00 | 71 | 1012.5 |
| 20260903003002 | 31 | 28 | 11.3 | 20.9 | 0.00 | 0.00 | 0.00 | 71 | 1012.4 |
| 20260903000003 | 32 | 42 | 14.5 | 25.7 | 0.00 | 0.00 | 0.00 | 69 | 1012.5 |
| 20260902234601 | 32 | 43 | 16.1 | 25.7 | 0.00 | 0.00 | 0.00 | 71 | 1012.6 |
| 20260902233059 | 32 | 55 | 17.7 | 30.6 | 0.00 | 0.00 | 0.00 | 70 | 1012.6 |
| 20260902231559 | 32 | 348 | 16.1 | 24.1 | 0.00 | 0.00 | 0.00 | 69 | 1012.3 |
| 20260902230057 | 32 | 13 | 19.3 | 29.0 | 0.00 | 0.00 | 0.00 | 69 | 1012.9 |
| 20260902224558 | 32 | 51 | 22.5 | 29.0 | 0.00 | 0.00 | 0.00 | 69 | 1013.2 |
| 20260902223113 | 32 | 47 | 20.9 | 29.0 | 0.00 | 0.00 | 0.00 | 69 | 1013.2 |
| 20260902221616 | 32 | 31 | 20.9 | 27.4 | 0.00 | 0.00 | 0.00 | 69 | 1012.6 |
| 20260902220058 | 33 | 19 | 17.7 | 29.0 | 0.00 | 0.00 | 0.00 | 67 | 1012.5 |
| 20260902214556 | 33 | 5 | 20.9 | 33.8 | 0.00 | 0.00 | 0.00 | 62 | 1012.3 |
| 20260902213102 | 33 | 33 | 17.7 | 35.4 | 0.00 | 0.00 | 0.00 | 61 | 1012.3 |
| 20260902211610 | 33 | 9 | 17.7 | 30.6 | 0.00 | 0.00 | 0.00 | 60 | 1012.4 |
| 20260902210057 | 33 | 336 | 19.3 | 35.4 | 0.00 | 0.00 | 0.00 | 64 | 1012.2 |
| 20260902204553 | 35 | 5 | 17.7 | 25.7 | 0.00 | 0.00 | 0.00 | 59 | 1012.6 |
| 20260902203049 | 37 | 55 | 4.8 | 14.5 | 0.00 | 0.00 | 0.00 | 49 | 1012.3 |
| 20260902201603 | 37 | 82 | 4.8 | 16.1 | 0.00 | 0.00 | 0.00 | 51 | 1012.6 |
| 20260902200041 | 36 | 147 | 4.8 | 11.3 | 0.00 | 0.00 | 0.00 | 54 | 1012.7 |
| 20260902194541 | 36 | 58 | 3.2 | 12.9 | 0.00 | 0.00 | 0.00 | 53 | 1012.9 |
| 20260902193036 | 36 | 163 | 8.0 | 19.3 | 0.00 | 0.00 | 0.00 | 54 | 1013.0 |
| 20260902191535 | 36 | 36 | 6.4 | 19.3 | 0.00 | 0.00 | 0.00 | 52 | 1013.2 |
| 20260902190032 | 36 | 28 | 6.4 | 12.9 | 0.00 | 0.00 | 0.00 | 53 | 1013.6 |
| 20260902184530 | 35 | 70 | 11.3 | 17.7 | 0.00 | 0.00 | 0.00 | 56 | 1014.0 |
| 20260902183042 | 35 | 184 | 6.4 | 17.7 | 0.00 | 0.00 | 0.00 | 56 | 1014.3 |
| 20260902181529 | 35 | 150 | 12.9 | 20.9 | 0.00 | 0.00 | 0.00 | 57 | 1014.6 |
| 20260902174522 | 34 | 127 | 9.7 | 19.3 | 0.00 | 0.00 | 0.00 | 59 | 1015.3 |
| 20260902173022 | 33 | 158 | 8.0 | 17.7 | 0.00 | 0.00 | 0.00 | 62 | 1015.5 |
| 20260902171519 | 33 | 140 | 12.9 | 17.7 | 0.00 | 0.00 | 0.00 | 61 | 1015.6 |
| 20260902170116 | 33 | 171 | 11.3 | 22.5 | 0.00 | 0.00 | 0.00 | 63 | 1016.0 |
| 20260902164518 | 33 | 157 | 3.2 | 19.3 | 0.00 | 0.00 | 0.00 | 66 | 1016.0 |
| 20260902163009 | 32 | 51 | 4.8 | 20.9 | 0.00 | 0.00 | 0.00 | 69 | 1016.2 |
| 20260902161510 | 32 | 147 | 3.2 | 20.9 | 0.00 | 0.00 | 0.00 | 71 | 1016.3 |
| 20260902160005 | 32 | 37 | 9.7 | 17.7 | 0.00 | 0.00 | 0.00 | 70 | 1016.2 |
| 20260902154614 | 31 | 143 | 4.8 | 19.3 | 0.00 | 0.00 | 0.00 | 74 | 1016.4 |
| 20260902153100 | 31 | 119 | 8.0 | 17.7 | 0.00 | 0.00 | 0.00 | 75 | 1016.3 |
| 20260902151618 | 31 | 140 | 6.4 | 14.5 | 0.00 | 0.00 | 0.00 | 74 | 1016.3 |
| 20260902150053 | 30 | 132 | 4.8 | 14.5 | 0.00 | 0.00 | 0.00 | 78 | 1016.1 |
| 20260902144550 | 30 | 110 | 8.0 | 16.1 | 0.00 | 0.00 | 0.00 | 77 | 1016.1 |
| 20260902143046 | 30 | 104 | 4.8 | 16.1 | 0.00 | 0.00 | 0.00 | 80 | 1015.8 |
| 20260902141542 | 29 | 125 | 9.7 | 14.5 | 0.00 | 0.00 | 0.00 | 82 | 1015.5 |
| 20260902140040 | 28 | 64 | 4.8 | 12.9 | 0.00 | 0.00 | 0.00 | 83 | 1015.5 |
| 20260902134535 | 28 | 112 | 8.0 | 14.5 | 0.00 | 0.00 | 0.00 | 84 | 1015.2 |
| 20260902133032 | 28 | 130 | 6.4 | 12.9 | 0.00 | 0.00 | 0.00 | 85 | 1015.2 |
| 20260902131529 | 27 | 78 | 1.6 | 14.5 | 0.00 | 0.00 | 0.00 | 86 | 1014.9 |